[[{"header":{"parameterUnit":"m.s-1","parameterCategory":1,"la1":30.2991,"la2":30.254,"lo1":-89.0895,"lo2":-89.0444,"dy":0.0017,"dx":0.0017,"nx":28,"ny":28,"refTime":"2026-01-08T03:00:00:Z","depth":0,"parameterNumber":2,"parameterNumberName":"U-component_of_WINDS"},"data":[0,0,0,0,0,0,0,0,0,0,0,0,0,0,0,0,0,0,0,0,0,0,0,0,0,0,0,0,0,0,0,0,0,0,0,0,0,0,0,0,0,0,0,0,0,0,0,0,0,0,0,0,0,0,0,0,0,0,-3.5575,-3.5575,0,-3.5595,-3.5595,-3.5595,-3.5554,-3.5553,-3.5552,-3.5551,-3.5571,-3.5573,-3.5574,0,0,0,0,0,0,0,0,0,0,0,0,0,-3.5503,-3.5505,-3.5575,-3.5575,-3.5576,-3.5595,-3.5595,-3.5595,-3.5555,-3.5553,-3.5551,-3.555,-3.557,-3.5572,-3.5575,0,0,0,0,0,0,0,0,0,0,0,0,0,-3.553,-3.5505,-3.5575,-3.5558,-3.5556,-3.5595,-3.5595,-3.5595,-3.5555,-3.5553,-3.5551,-3.5549,-3.557,-3.5572,-3.5575,-3.5631,0,0,-3.5583,-3.5584,0,0,0,0,0,0,0,0,-3.5528,-3.5532,-3.556,-3.5559,-3.5557,-3.557,-3.5577,-3.5607,-3.5556,-3.5556,-3.5551,-3.5548,-3.5572,-3.5575,-3.5583,-3.5632,-3.5633,-3.5583,-3.5585,-3.5586,-3.5587,0,0,0,0,0,0,0,-3.5526,-3.5531,-3.5583,-3.556,-3.5559,-3.5549,-3.5551,-3.5582,-3.5575,-3.5555,-3.5552,-3.5555,-3.5571,-3.558,-3.5583,-3.5633,-3.5583,-3.5585,-3.5587,-3.5588,-3.5729,-3.5731,0,0,0,0,0,0,-3.5527,-3.553,-3.5582,-3.5583,-3.5538,-3.5552,-3.5554,-3.5568,-3.5574,-3.5573,-3.5557,-3.5553,-3.5577,-3.558,-3.5583,-3.5648,-3.5586,-3.5588,-3.559,-3.5727,-3.5729,-3.5732,0,0,0,0,0,0,-3.5525,-3.5532,-3.5581,-3.5556,-3.5561,-3.5555,-3.5572,-3.5569,-3.5578,-3.5576,-3.5574,-3.5567,-3.5575,-3.558,-3.5619,-3.5649,-3.559,-3.5592,-3.5724,-3.5728,-3.573,-3.578,0,0,0,0,0,0,-3.5523,-3.5532,-3.5553,-3.5557,-3.5563,-3.5617,-3.5574,-3.5571,-3.5583,-3.5578,-3.5585,-3.5584,-3.5574,-3.5615,-3.5622,-3.5651,-3.5594,-3.5721,-3.5726,-3.5729,-3.5775,-3.5784,-3.5792,0,0,0,0,0,-3.5521,-3.5566,-3.5554,-3.556,-3.5589,-3.5619,-3.5622,-3.5609,-3.5586,-3.5607,-3.5605,-3.5584,-3.5645,-3.562,-3.5627,-3.5657,-3.572,-3.5724,-3.5729,-3.5772,-3.5783,-3.5792,0,0,0,0,0,0,-3.5565,-3.5566,-3.5553,-3.56,-3.561,-3.5612,-3.5638,-3.5621,-3.5638,-3.5633,-3.5617,-3.5618,-3.5661,-3.5663,-3.5636,-3.5712,-3.5678,-3.5685,-3.5708,-3.5718,-3.5726,-3.5724,-3.5596,0,0,0,0,0,-3.5581,-3.5604,-3.5604,-3.5646,-3.5651,-3.5644,-3.5656,-3.5646,-3.5655,-3.5659,-3.566,-3.567,-3.5691,-3.5705,-3.5725,-3.5776,-3.5777,-3.5801,-3.5809,-3.5816,-3.5821,-3.5848,-3.5858,-3.5747,-3.5747,-3.5747,0,0,-3.5612,-3.5616,-3.5632,-3.5655,-3.5661,-3.5686,-3.5647,-3.5676,-3.5694,-3.5663,-3.57,-3.5702,-3.5711,-3.5757,-3.5777,-3.576,-3.5852,-3.5822,-3.5827,-3.5829,-3.5854,-3.5864,-3.5874,-3.5751,-3.575,-3.575,0,0,-3.5682,-3.5688,-3.5723,-3.573,-3.574,-3.5735,-3.5743,-3.5748,-3.5748,-3.5785,-3.5762,-3.5784,-3.5821,-3.5829,-3.5838,-3.5912,-3.5893,-3.5919,-3.5961,-3.5987,-3.5996,-3.6003,-3.6029,-3.6038,-3.5924,-3.5925,-3.5925,0,-3.572,-3.5757,-3.5743,-3.5772,-3.5783,-3.5757,-3.5792,-3.58,-3.5816,-3.5823,-3.5805,-3.585,-3.5855,-3.5902,-3.592,-3.5929,-3.5938,-3.5917,-3.5996,-3.6003,-3.601,-3.6034,-3.6044,-3.5927,-3.5927,-3.5927,-3.5927,0,-3.5802,-3.5828,-3.5855,-3.5871,-3.5885,-3.5917,-3.5909,-3.5925,-3.5913,-3.591,-3.5948,-3.5954,-3.5973,-3.5984,-3.5974,-3.603,-3.6019,-3.5998,-3.5964,-3.6024,-3.6046,-3.6055,-3.5932,-3.5931,-3.593,-3.5929,0,0,-3.5899,-3.5907,-3.5917,-3.5924,-3.5933,-3.5953,-3.5984,-3.6003,-3.6017,-3.6029,-3.6055,-3.6087,-3.6068,-3.6078,-3.6069,-3.6092,-3.6149,-3.6069,-3.6068,-3.6082,-3.621,-3.6224,-3.6235,-3.6138,-3.6139,-3.6141,-3.6209,0,-3.5967,-3.6021,-3.601,-3.6062,-3.6085,-3.6061,-3.6088,-3.6097,-3.6096,-3.6115,-3.6114,-3.6137,-3.611,-3.6116,-3.6139,-3.6137,-3.6174,-3.6133,-3.616,-3.6161,-3.6156,-3.6247,-3.6262,-3.6325,-3.6217,-3.6219,-3.622,0,-3.6054,-3.6069,-3.6123,-3.6128,-3.6138,-3.6162,-3.6179,-3.6198,-3.6208,-3.6205,-3.6217,-3.6203,-3.6234,-3.6201,-3.6243,-3.6215,-3.6226,-3.6228,-3.623,-3.623,-3.6193,-3.6248,-3.6346,-3.6355,-3.6234,-3.6233,-3.6232,0,-3.6117,-3.6151,-3.6188,-3.6194,-3.6202,-3.622,-3.6224,-3.6231,-3.6244,-3.6259,-3.6266,-3.6285,-3.6295,-3.631,-3.6302,-3.6278,-3.6345,-3.6312,-3.6343,-3.6343,-3.6357,-3.6355,-3.6456,-3.6367,-3.6367,-3.6367,-3.6366,0,-3.6193,-3.6227,-3.6216,-3.6239,-3.6276,-3.6264,-3.6301,-3.6302,-3.631,-3.6332,-3.6313,-3.6335,-3.6323,-3.6343,-3.6337,-3.6373,-3.6378,-3.6376,-3.6374,-3.6377,-3.6377,-3.6382,-3.6377,-3.6369,-3.6369,-3.6368,-3.6368,0,-3.6269,-3.6264,-3.6302,-3.6306,-3.6308,-3.6335,-3.6339,-3.636,-3.6357,-3.6386,-3.6392,-3.6388,-3.6411,-3.6405,-3.643,-3.6426,-3.647,-3.6463,-3.6467,-3.6464,-3.6496,-3.6492,-3.6601,-3.6615,-3.6519,-3.652,-3.6521,0,-3.6317,-3.6343,-3.635,-3.6363,-3.6368,-3.6391,-3.6403,-3.6392,-3.6406,-3.6419,-3.6438,-3.646,-3.6477,-3.6515,-3.6515,-3.6534,-3.6526,-3.6563,-3.6529,-3.6531,-3.6525,-3.6523,-3.6525,-3.6569,-3.657,-3.6571,-3.6572,0,-3.6403,-3.6399,-3.6417,-3.6435,-3.645,-3.6464,-3.6475,-3.6488,-3.6478,-3.6494,-3.6518,-3.6531,-3.6557,-3.6578,-3.6596,-3.66,-3.6584,-3.6583,-3.6591,-3.6594,-3.6594,-3.6593,-3.6484,-3.658,-3.6579,-3.6579,-3.6578,-3.6578,-3.6465,-3.6486,-3.6494,-3.6516,-3.6523,-3.6535,-3.6555,-3.6555,-3.6574,-3.6594,-3.6587,-3.6614,-3.6623,-3.6645,-3.6652,-3.6672,-3.6658,-3.667,-3.6673,-3.6676,-3.6679,-3.6592,-3.6676,-3.6676,-3.6676,-3.6675,-3.6675,0,-3.6548,-3.6553,-3.6572,-3.6589,-3.6606,-3.659,-3.6603,-3.6617,-3.6641,-3.6651,-3.6668,-3.6695,-3.6716,-3.6717,-3.6737,-3.6753,-3.6746,-3.6758,-3.6756,-3.6757,-3.6691,-3.6681,-3.6764,-3.6764,-3.6764,-3.6763,-3.6763,-3.6763,-3.6593,-3.6628,-3.6625,-3.6664,-3.6668,-3.6693,-3.6702,-3.6712,-3.672,-3.6751,-3.6768,-3.6769,-3.6775,-3.6795,-3.6814,-3.6814,-3.6821,-3.6836,-3.6833,-3.6771,-3.6762,-3.6754,-3.6744,-3.6838,-3.6838,-3.6897,-3.6898,-3.6898]},{"header":{"parameterUnit":"m.s-1","parameterCategory":1,"la1":30.2991,"la2":30.254,"lo1":-89.0895,"lo2":-89.0444,"dy":0.0017,"dx":0.0017,"nx":28,"ny":28,"refTime":"2026-01-08T03:00:00:Z","depth":0,"parameterNumber":3,"parameterNumberName":"V-component_of_WINDS"},"data":[0,0,0,0,0,0,0,0,0,0,0,0,0,0,0,0,0,0,0,0,0,0,0,0,0,0,0,0,0,0,0,0,0,0,0,0,0,0,0,0,0,0,0,0,0,0,0,0,0,0,0,0,0,0,0,0,0,0,3.9211,3.9211,0,3.9248,3.9249,3.9249,3.9243,3.9243,3.9242,3.9241,3.9277,3.9279,3.928,0,0,0,0,0,0,0,0,0,0,0,0,0,3.9133,3.9135,3.9211,3.9211,3.9212,3.9248,3.9249,3.9249,3.9243,3.9243,3.9242,3.9241,3.9277,3.9279,3.9281,0,0,0,0,0,0,0,0,0,0,0,0,0,3.9168,3.9135,3.921,3.9213,3.9214,3.9248,3.9249,3.9249,3.9244,3.9243,3.9242,3.9241,3.9276,3.9278,3.9281,3.9314,0,0,3.9288,3.9289,0,0,0,0,0,0,0,0,3.9166,3.9171,3.9212,3.9213,3.9214,3.924,3.9235,3.9271,3.9244,3.9232,3.9241,3.924,3.9266,3.9269,3.9278,3.9316,3.9318,3.9288,3.929,3.9291,3.9291,0,0,0,0,0,0,0,3.9164,3.917,3.9225,3.9213,3.9214,3.9212,3.9216,3.9242,3.9254,3.9233,3.9233,3.9237,3.9266,3.9276,3.9279,3.9318,3.9288,3.929,3.9292,3.9292,3.9389,3.9391,0,0,0,0,0,0,3.9161,3.9168,3.9224,3.9227,3.9187,3.9215,3.9219,3.9233,3.9253,3.9256,3.9238,3.9237,3.9272,3.9276,3.928,3.9323,3.9291,3.9293,3.9294,3.9388,3.939,3.9391,0,0,0,0,0,0,3.9159,3.9166,3.9223,3.9197,3.9204,3.9217,3.9232,3.9234,3.9244,3.9257,3.9259,3.9246,3.9271,3.9277,3.9307,3.9324,3.9294,3.9296,3.9387,3.9389,3.939,3.9408,0,0,0,0,0,0,3.9157,3.9166,3.9178,3.9197,3.9206,3.9249,3.9233,3.9235,3.9248,3.9247,3.9265,3.9267,3.9271,3.9303,3.9309,3.9327,3.9298,3.9385,3.9388,3.939,3.9406,3.941,3.9414,0,0,0,0,0,3.9154,3.918,3.9179,3.9186,3.9222,3.925,3.9255,3.9259,3.9249,3.9263,3.9272,3.9267,3.9321,3.9307,3.9313,3.9332,3.9384,3.9387,3.939,3.9404,3.941,3.9414,0,0,0,0,0,0,3.9161,3.9183,3.9181,3.9214,3.9231,3.9249,3.9265,3.9264,3.9283,3.9281,3.9285,3.9289,3.9321,3.9329,3.9312,3.9367,3.9351,3.9356,3.936,3.9365,3.9369,3.9367,3.93,0,0,0,0,0,3.9166,3.9188,3.9206,3.9233,3.9242,3.9252,3.9265,3.9267,3.9284,3.929,3.9302,3.9318,3.9339,3.9352,3.9372,3.9407,3.9412,3.9424,3.9427,3.9431,3.9434,3.9457,3.9462,3.94,3.94,3.94,0,0,3.9177,3.9192,3.9205,3.9235,3.9248,3.9271,3.9258,3.9281,3.9299,3.9294,3.9324,3.9333,3.9351,3.9385,3.94,3.9393,3.9453,3.9434,3.9436,3.9438,3.946,3.9466,3.9471,3.9402,3.9401,3.9401,0,0,3.9209,3.9222,3.9248,3.9262,3.9283,3.929,3.9297,3.9316,3.9323,3.9354,3.9351,3.9372,3.9407,3.9421,3.9433,3.9475,3.9471,3.9481,3.9501,3.9523,3.9528,3.9533,3.955,3.9556,3.9484,3.9484,3.9484,0,3.922,3.9255,3.9261,3.9286,3.9301,3.9299,3.9326,3.9339,3.9365,3.9375,3.9366,3.9413,3.9425,3.9464,3.9474,3.9483,3.9492,3.9479,3.9527,3.9532,3.9536,3.9552,3.9558,3.9485,3.9485,3.9485,3.9485,0,3.9269,3.9293,3.9311,3.9339,3.9355,3.938,3.9391,3.9407,3.9409,3.9418,3.945,3.9465,3.949,3.9499,3.9499,3.9538,3.9534,3.9526,3.9511,3.9543,3.9559,3.9565,3.9487,3.9487,3.9486,3.9486,0,0,3.9304,3.9337,3.9344,3.9358,3.9382,3.9401,3.9428,3.9454,3.9468,3.9486,3.951,3.9542,3.9536,3.955,3.9552,3.9571,3.9607,3.9562,3.9562,3.9571,3.9653,3.966,3.9667,3.9605,3.9606,3.9607,3.9653,0,3.934,3.9388,3.9396,3.9439,3.9463,3.9464,3.9487,3.9505,3.9515,3.9537,3.9547,3.957,3.956,3.9569,3.9587,3.9599,3.9624,3.9595,3.9628,3.9629,3.9625,3.9675,3.9681,3.9724,3.9659,3.966,3.966,0,3.9388,3.9411,3.9456,3.9481,3.9492,3.9513,3.9539,3.9559,3.958,3.9586,3.9603,3.9605,3.9634,3.9617,3.9658,3.9638,3.9652,3.966,3.9662,3.9666,3.9647,3.9682,3.9737,3.9744,3.9669,3.9669,3.9668,0,3.9412,3.9454,3.9488,3.9499,3.9528,3.9544,3.9556,3.9576,3.9593,3.9615,3.9626,3.9651,3.9664,3.9684,3.9693,3.9679,3.9734,3.9717,3.974,3.974,3.9752,3.9751,3.9812,3.9759,3.9758,3.9758,3.9758,0,3.9452,3.9481,3.9499,3.952,3.9553,3.9562,3.9594,3.9606,3.9625,3.9649,3.965,3.9672,3.9682,3.9706,3.9712,3.9747,3.9752,3.9758,3.976,3.9759,3.9759,3.9769,3.9767,3.976,3.976,3.9759,3.9759,0,3.9485,3.9498,3.9535,3.9561,3.9568,3.9592,3.9614,3.9634,3.9645,3.9675,3.9683,3.9699,3.9728,3.9739,3.9772,3.9777,3.9818,3.9816,3.9811,3.9812,3.9836,3.9834,3.9906,3.9917,3.9855,3.9855,3.9856,0,3.951,3.9533,3.9562,3.9579,3.9593,3.9619,3.9637,3.9647,3.9666,3.9694,3.9711,3.974,3.9764,3.981,3.9825,3.9852,3.9852,3.9875,3.9855,3.9855,3.9855,3.9854,3.9857,3.9879,3.988,3.988,3.988,0,3.9554,3.9561,3.9587,3.9616,3.9637,3.966,3.9682,3.9696,3.971,3.9731,3.9761,3.978,3.9817,3.9846,3.9874,3.9887,3.9887,3.9887,3.9894,3.9894,3.9891,3.9895,3.9823,3.9885,3.9885,3.9884,3.9884,3.9884,3.9585,3.9607,3.9632,3.9662,3.968,3.9702,3.9724,3.9739,3.9765,3.9797,3.9801,3.9835,3.9858,3.9896,3.9911,3.9937,3.9931,3.9941,3.9943,3.9946,3.9949,3.9886,3.9942,3.9942,3.9942,3.9942,3.9942,0,3.9632,3.9649,3.9676,3.9709,3.9733,3.9732,3.9758,3.9778,3.9808,3.983,3.9855,3.9891,3.9921,3.9939,3.9969,3.9987,3.9987,3.9994,3.9994,3.9997,3.9952,3.9944,3.9993,3.9993,3.9993,3.9993,3.9993,3.9993,3.9659,3.9697,3.9707,3.9754,3.9771,3.9805,3.982,3.9841,3.9859,3.9901,3.9926,3.9938,3.996,3.9992,4.0019,4.0024,4.0036,4.0043,4.0048,4.0005,4.0,3.9995,3.9987,4.0045,4.0045,4.0091,4.0092,4.0092]}]]